Regional Weather Roundup
Issued by NWS Wilmington, NC

Current Version |  Previous Version |  Graphics & Text |  Print | Product List |  Glossary Off
Versions: 1 2 3 4 5 6 7 8 9 10 11 12 13 14 15 16 17 18 19 20 21 22 23 24 25 26 27 28
812
ASUS42 KILM 172010
RWRILM
RWRILM
REGIONAL HOURLY WEATHER ROUNDUP
NATIONAL WEATHER SERVICE WILMINGTON NC
400 PM EDT WED JUL 17 2024

NOTE: "FAIR" INDICATES FEW OR NO CLOUDS BELOW 12,000 FEET WITH NO
SIGNIFICANT WEATHER AND/OR OBSTRUCTIONS TO VISIBILITY.

...............WFO WILMINGTON COUNTY WARNING AREA...............

......COASTAL NC AND SC COUNTIES......

CITY           SKY/WX    TMP DP  RH WIND       PRES   REMARKS
WILMINGTON     CLOUDY    83  76  79 S17G29    29.98F HX  91
N MYRTLE BEACH PTSUNNY   87  79  76 S21G29    29.98F HX 101
MYRTLE BEACH   PTSUNNY   87  82  85 S20G30    29.99F HX 106

......INLAND NC AND SC COUNTIES.......

CITY           SKY/WX    TMP DP  RH WIND       PRES   REMARKS
LUMBERTON      PTSUNNY   95  75  52 S16G24    29.92F HX 107
ELIZABETHTOWN  CLOUDY    89  77  67 S17G23    29.96F HX 101
WHITEVILLE     PTSUNNY   89  76  65 S12G17    29.98F HAZE    HX 100
FLORENCE       MOSUNNY   97  73  45 S14       29.93F HX 107
DARLINGTON     MOSUNNY   93  75  55 SW12      29.93F HX 104
KINGSTREE      MOSUNNY   97  66  36 S8G18     29.95F HX 100
HARTSVILLE     CLOUDY    91  70  49 S9        29.92F HX  97
BENNETTSVILLE  TSTM      90  75  62 S5        29.92F HX 100
CONWAY         PTSUNNY   91  73  55 S10G16    29.97F HX 100
GEORGETOWN     PTSUNNY   88  77  70 S12       29.99F HX 100
MARION         PTSUNNY   91  72  52 S15G22    29.95F HX  98

....................REST OF NORTH CAROLINA......................

.........EASTERN NC.........

CITY           SKY/WX    TMP DP  RH WIND       PRES   REMARKS
CAPE HATTERAS  CLOUDY    80  77  90 SW13G22   29.98F
JACKSONVILLE   CLOUDY    82  76  81 S16       29.99S
MOREHEAD CITY  CLOUDY    83  75  77 SW22G32   29.99F HX  90
KENANSVILLE    CLOUDY    86  79  79 S12G22    29.95F HX  99
NEW BERN       MOSUNNY   86  74  67 SW20G31   29.98S HX  94
ELIZABETH CITY MOSUNNY   87  74  64 S21G29    29.92F HX  95

.........CENTRAL NC.........

CITY           SKY/WX    TMP DP  RH WIND       PRES   REMARKS
RALEIGH DURHAM PTSUNNY   95  74  50 SW12G21   29.91F HX 105
ROCKY MOUNT    PTSUNNY   93  73  52 SW12G18   29.90F HX 102
ROANOKE RAPIDS NOT AVBL
FAYETTEVILLE   CLOUDY    92  71  50 S14       29.91F THUNDER HX  98
HOFFMAN        PTSUNNY   93  73  51 SW16G23   29.89F HX 101

.........WESTERN NC.........

CITY           SKY/WX    TMP DP  RH WIND       PRES   REMARKS
CHARLOTTE      MOSUNNY   95  69  42 VRB7      29.92F HX 100
GREENSBORO     PTSUNNY   93  71  48 S15G23    29.90F HX 100
HICKORY        NOT AVBL
BOONE          NOT AVBL
ASHEVILLE      NOT AVBL

.....................REST OF SOUTH CAROLINA.....................

.........EASTERN SC.........

CITY           SKY/WX    TMP DP  RH WIND       PRES   REMARKS
CHARLESTON     MOSUNNY   93  78  61 S15G24    29.97F HX 108
BEAUFORT MCAS  PTSUNNY   95  81  63 S10G21    29.97F HX 116
HILTON HEAD    SUNNY     90  79  70 S12G24    30.00F HX 105

.........CENTRAL SC.........

CITY           SKY/WX    TMP DP  RH WIND       PRES   REMARKS
COLUMBIA       MOSUNNY   96  71  44 SW12      29.92F HX 103
ORANGEBURG     SUNNY     93  74  53 SW10G17   29.96F HX 103
SUMTER SHAW    MOSUNNY   96  72  45 SW13      29.92  HX 103

.........WESTERN SC.........

CITY           SKY/WX    TMP DP  RH WIND       PRES   REMARKS
GREENVILLE     NOT AVBL
ROCK HILL      MOSUNNY   93  72  50 SW8       29.93F HX 101
ANDERSON       PTSUNNY   90  72  55 W8        29.95F HX  97
CLEMSON        NOT AVBL
GREENWOOD      TSTM      79  72  79 N10G18    29.98S


...................COASTAL AND OFFSHORE REPORTS..................

................LOCAL PIERS AND NC RESERVE................


STATION/POSITION TIME  SKY/WX   TEMP    WIND        PRES    VSBY
                                AIR SEA DIR/SP/G
                 (UTC)          (F)     (DEG/KT/KT) (MB)    (MI)
JOHNY MRCER PIER 1924            81 81  180/ 24/ 27 1015.5
NC RESRV MASNBRO NOT AVBL
OCEAN CREST PIER NOT AVBL
SPRINGMAID  PIER 1924            84 86  190/ 21/ 24 1015.5


................COASTAL AND OFFSHORE BUOYS................


STATION/POSITION TIME  SKY/WX   TEMP    WIND        PRES    VSBY
                                AIR SEA DIR/SP/G
                 (UTC)          (F)     (DEG/KT/KT) (MB)    (MI)
DIMNDSHOAL 41025 1950               83  210/ 19/ 25 1015.5F
WVE H/P(F/S)=  6/ 6

CAPE LOOKOUT     1900            80     200/ 20/ 24 1016.3F
ONSLOW BAY 41036 NOT AVBL
ONSLOW BAY 41064 1908            79 84  190/ 21/ 27 1017.1R
ONSLOW BAY 41159 1956               84                N/A
WVE H/P(F/S)=  6/ 6

MASNBO INL 41110 1926               81                N/A
WVE H/P(F/S)=  5/ 5

WILM HARBR 41108 1930            82 84                N/A
WVE H/P(F/S)=  5/ 6

27SE WRITB 41037 1908            79 83  170/ 21/ 29 1017.6R
FRYING PAN 41013 1950            80 84  170/ 19/ 23 1017.1F
WVE H/P(F/S)=  6/ 7 SWL H/P/D(F/S/D)=  2/140/ 9

SUNST NRSH 41024 1908            85 85  190/ 17/ 25 1015.7F
CAPRS NRSH 41029 1908            84 85  200/ 19/ 23 1016.0F
EDISTO     41004 1950            84 85  190/ 16/ 19 1016.4F
WVE H/P(F/S)=  4/ 6 SWL H/P/D(F/S/D)=  2/140/ 8



..........OFFSHORE BUOYS BEYOND 100 NM OFFSHORE...........
.....IN A TRIANGLE---HAT TO BERMUDA TO BAHAMAS TO HAT.....


STATION/POSITION TIME  SKY/WX   TEMP    WIND        PRES    VSBY
                                AIR SEA DIR/SP/G
                 (UTC)          (F)     (DEG/KT/KT) (MB)    (MI)
150E HAT   41001 1940            82 82  220/ 17/ 21 1019.8R
W BERMUDA  41048 NOT AVBL
ATLANTIC S 41049 1940            82 83  120/ 14/ 16 1022.8F
E BAHAMAS  41046 1950            82 85   80/ 17/ 19 1019.3F
WVE H/P(F/S)=  5/ 9 SWL H/P/D(F/S/D)=  3/ 90/ 9

NE BAHAMAS 41047 1950            84 84  150/  8/ 10 1019.5F
WVE H/P(F/S)=  4/ 8 SWL H/P/D(F/S/D)=  3/100/ 8

120E CANVRL41010 1940            84 86  110/  2/  4 1019.2F

END